User: anonymous   Login
Location: Unspecified
(0.0000°N, 0.0000°E)
Time: 00:05:05
(UTC+00:00)
Language:

GEESAT 4 - Orbit

View from above orbital plane
View from above orbital plane
View from above satellite
View from above satellite

Ground track
Ground track

The orbit is defined by the following mean orbital elements,

1 52788U          26145.57541800 +.00000000 +00000-0 +22504-3 0 00007
2 52788  50.0053 307.4472 0009694  63.8777 296.3157 14.81309635    01
Epoch (UTC): 25 May 2026 13:48:36
Eccentricity: 0.0009694
inclination: 50.0053°
perigee height: 618 km
apogee height: 632 km
right ascension of ascending node: 307.4472°
argument of perigee: 63.8777°
revolutions per day: 14.81309635
mean anomaly at epoch: 296.3157°

The dashed part of the orbit path shows where the satellite is in the earth's shadow,  

DLR